Terug naar catalogus

STARLINK-36917

ActiefCommunicatieVLEO
NORAD 68059·PAYLOAD·🇺🇸 United States

Gelanceerd Mar 2, 2026 vanaf Vandenberg Space Force Base

Loading…

Volgende Passages (komende 24 uur)

TLE

VersSource: CelesTrak SupGP

Epoch: Sep 15, 2026, 04:20 UTC

1 68059C 26041V   26258.18104167 -.00040537  00000+0 -11977-2 0  2587
2 68059  53.1580 244.8547 0001411  89.1555  89.2561 15.34409224    12

Volg STARLINK-36917 in realtime met AllMySat

Download on the App Store